| time (UTC) | temp F | wind direction | speed MPH | gust MPH | rain 1hr in | rain 24hr in | rain mn in | humidity % | barometer mb |
| 20260902064305 | 60 | 207 | 0.0 | 0.0 | 0.00 | 0.00 | 0.00 | 49 | 1008.6 |
| 20260902063805 | 60 | 207 | 0.0 | 0.0 | 0.00 | 0.00 | 0.00 | 50 | 1008.7 |
| 20260902063306 | 61 | 207 | 0.0 | 0.0 | 0.00 | 0.00 | 0.00 | 50 | 1008.5 |
| 20260902062805 | 61 | 207 | 0.0 | 0.0 | 0.00 | 0.00 | 0.00 | 49 | 1008.6 |
| 20260902062306 | 61 | 207 | 0.0 | 1.0 | 0.00 | 0.00 | 0.00 | 49 | 1008.5 |
| 20260902061805 | 61 | 207 | 0.0 | 1.0 | 0.00 | 0.00 | 0.00 | 50 | 1008.7 |
| 20260902061306 | 61 | 207 | 0.0 | 1.0 | 0.00 | 0.00 | 0.00 | 50 | 1008.7 |
| 20260902060817 | 60 | 207 | 0.0 | 0.0 | 0.00 | 0.00 | 0.00 | 50 | 1008.9 |
| 20260902060305 | 61 | 207 | 0.0 | 0.0 | 0.00 | 0.00 | 0.00 | 51 | 1008.9 |
| 20260902055805 | 60 | 207 | 0.0 | 0.0 | 0.00 | 0.00 | 0.00 | 52 | 1009.0 |
| 20260902054805 | 60 | 207 | 0.0 | 0.0 | 0.00 | 0.00 | 0.00 | 53 | 1009.2 |
| 20260902054305 | 60 | 207 | 0.0 | 0.0 | 0.00 | 0.00 | 0.00 | 53 | 1009.6 |
| 20260902053805 | 61 | 207 | 0.0 | 0.0 | 0.00 | 0.00 | 0.00 | 52 | 1009.4 |
| 20260902053305 | 62 | 207 | 0.0 | 0.0 | 0.00 | 0.00 | 0.00 | 51 | 1009.3 |
| 20260902052805 | 62 | 207 | 0.0 | 0.0 | 0.00 | 0.00 | 0.00 | 51 | 1009.4 |
| 20260902052306 | 62 | 207 | 0.0 | 0.0 | 0.00 | 0.00 | 0.00 | 50 | 1009.1 |
| 20260902051807 | 62 | 207 | 0.0 | 0.0 | 0.00 | 0.00 | 0.00 | 50 | 1009.3 |
| 20260902051304 | 62 | 207 | 0.0 | 1.0 | 0.00 | 0.00 | 0.00 | 49 | 1009.2 |
| 20260902050805 | 63 | 207 | 0.0 | 1.0 | 0.00 | 0.00 | 0.00 | 49 | 1009.2 |
| 20260902050305 | 63 | 207 | 0.0 | 2.0 | 0.00 | 0.00 | 0.00 | 49 | 1009.2 |
| 20260902045805 | 63 | 208 | 1.0 | 2.0 | 0.00 | 0.00 | 0.00 | 48 | 1009.2 |
| 20260902045306 | 64 | 184 | 0.0 | 1.0 | 0.00 | 0.00 | 0.00 | 47 | 1009.3 |
| 20260902044805 | 64 | 184 | 0.0 | 2.0 | 0.00 | 0.00 | 0.00 | 47 | 1009.4 |
| 20260902043805 | 64 | 249 | 0.0 | 1.0 | 0.00 | 0.00 | 0.00 | 46 | 1009.3 |
| 20260902043305 | 64 | 250 | 0.0 | 1.0 | 0.00 | 0.00 | 0.00 | 45 | 1009.3 |
| 20260902042804 | 64 | 250 | 0.0 | 1.0 | 0.00 | 0.00 | 0.00 | 45 | 1009.3 |
| 20260902042309 | 64 | 251 | 0.0 | 1.0 | 0.00 | 0.00 | 0.00 | 45 | 1009.3 |
| 20260902041804 | 64 | 251 | 0.0 | 1.0 | 0.00 | 0.00 | 0.00 | 45 | 1009.4 |
| 20260902041305 | 65 | 252 | 0.0 | 0.0 | 0.00 | 0.00 | 0.00 | 45 | 1009.3 |
| 20260902040805 | 65 | 252 | 0.0 | 1.0 | 0.00 | 0.00 | 0.00 | 44 | 1009.2 |
| 20260902040306 | 65 | 252 | 0.0 | 1.0 | 0.00 | 0.00 | 0.00 | 45 | 1009.3 |
| 20260902035804 | 65 | 293 | 0.0 | 1.0 | 0.00 | 0.00 | 0.00 | 45 | 1009.5 |
| 20260902035305 | 65 | 230 | 0.0 | 1.0 | 0.00 | 0.00 | 0.00 | 45 | 1009.7 |
| 20260902034805 | 65 | 146 | 0.0 | 1.0 | 0.00 | 0.00 | 0.00 | 45 | 1009.7 |
| 20260902034306 | 66 | 111 | 0.0 | 1.0 | 0.00 | 0.00 | 0.00 | 45 | 1009.8 |
| 20260902033805 | 66 | 111 | 0.0 | 0.0 | 0.00 | 0.00 | 0.00 | 44 | 1009.6 |
| 20260902033305 | 67 | 111 | 0.0 | 1.0 | 0.00 | 0.00 | 0.00 | 44 | 1009.9 |
| 20260902032805 | 67 | 103 | 0.0 | 1.0 | 0.00 | 0.00 | 0.00 | 44 | 1010.1 |
| 20260902032306 | 67 | 218 | 0.0 | 1.0 | 0.00 | 0.00 | 0.00 | 44 | 1010.3 |
| 20260902031805 | 67 | 120 | 0.0 | 1.0 | 0.00 | 0.00 | 0.00 | 44 | 1010.5 |
| 20260902030804 | 67 | 120 | 0.0 | 0.0 | 0.00 | 0.00 | 0.00 | 44 | 1010.5 |
| 20260902030306 | 68 | 119 | 0.0 | 1.0 | 0.00 | 0.00 | 0.00 | 43 | 1010.8 |
| 20260902025805 | 68 | 119 | 0.0 | 1.0 | 0.00 | 0.00 | 0.00 | 43 | 1010.7 |
| 20260902025306 | 68 | 118 | 0.0 | 1.0 | 0.00 | 0.00 | 0.00 | 43 | 1010.7 |
| 20260902024805 | 69 | 118 | 0.0 | 1.0 | 0.00 | 0.00 | 0.00 | 43 | 1010.7 |
| 20260902024306 | 69 | 118 | 0.0 | 1.0 | 0.00 | 0.00 | 0.00 | 43 | 1010.6 |
| 20260902023805 | 69 | 118 | 0.0 | 1.0 | 0.00 | 0.00 | 0.00 | 42 | 1010.7 |
| 20260902022306 | 71 | 111 | 0.0 | 1.0 | 0.00 | 0.00 | 0.00 | 41 | 1010.9 |
| 20260902021805 | 71 | 111 | 0.0 | 0.0 | 0.00 | 0.00 | 0.00 | 40 | 1011.0 |
| 20260902020305 | 73 | 107 | 0.0 | 1.0 | 0.00 | 0.00 | 0.00 | 38 | 1010.7 |
| 20260902015306 | 74 | 111 | 0.0 | 0.0 | 0.00 | 0.00 | 0.00 | 36 | 1010.7 |
| 20260902014805 | 75 | 111 | 0.0 | 1.0 | 0.00 | 0.00 | 0.00 | 35 | 1010.7 |
| 20260902014304 | 76 | 109 | 0.0 | 1.0 | 0.00 | 0.00 | 0.00 | 34 | 1010.6 |
| 20260902013804 | 76 | 141 | 0.0 | 2.0 | 0.00 | 0.00 | 0.00 | 33 | 1010.4 |
| 20260902013305 | 76 | 199 | 0.0 | 0.0 | 0.00 | 0.00 | 0.00 | 34 | 1010.5 |
| 20260902012806 | 76 | 199 | 0.0 | 1.0 | 0.00 | 0.00 | 0.00 | 33 | 1010.5 |
| 20260902012309 | 76 | 199 | 0.0 | 3.0 | 0.00 | 0.00 | 0.00 | 33 | 1010.6 |
| 20260902011805 | 76 | 212 | 0.0 | 3.0 | 0.00 | 0.00 | 0.00 | 32 | 1010.6 |
| 20260902011304 | 77 | 206 | 0.0 | 3.0 | 0.00 | 0.00 | 0.00 | 31 | 1010.8 |
| 20260902010806 | 77 | 155 | 1.0 | 3.0 | 0.00 | 0.00 | 0.00 | 30 | 1010.5 |
| 20260902010305 | 78 | 181 | 1.0 | 5.0 | 0.00 | 0.00 | 0.00 | 30 | 1010.5 |
| 20260902005805 | 78 | 170 | 2.0 | 6.0 | 0.00 | 0.00 | 0.00 | 29 | 1010.5 |
| 20260902004305 | 79 | 174 | 1.0 | 2.0 | 0.00 | 0.00 | 0.00 | 28 | 1010.7 |
| 20260902003304 | 79 | 171 | 4.0 | 7.0 | 0.00 | 0.00 | 0.00 | 27 | 1010.7 |
| 20260902002805 | 79 | 283 | 2.0 | 7.0 | 0.00 | 0.00 | 0.00 | 27 | 1010.5 |
| 20260902002306 | 80 | 193 | 2.0 | 7.0 | 0.00 | 0.00 | 0.00 | 28 | 1010.5 |
| 20260902001805 | 80 | 45 | 1.0 | 3.0 | 0.00 | 0.00 | 0.00 | 28 | 1010.6 |
| 20260902001305 | 80 | 152 | 1.0 | 3.0 | 0.00 | 0.00 | 0.00 | 28 | 1010.4 |
| 20260902000806 | 80 | 205 | 2.0 | 6.0 | 0.00 | 0.00 | 0.00 | 27 | 1010.6 |
| 20260902000305 | 80 | 39 | 1.0 | 5.0 | 0.00 | 0.00 | 0.00 | 27 | 1010.6 |
| 20260901235805 | 79 | 193 | 1.0 | 5.0 | 0.00 | 0.00 | 0.00 | 27 | 1010.7 |
| 20260901234806 | 79 | 213 | 1.0 | 6.0 | 0.00 | 0.00 | 0.00 | 28 | 1010.9 |
| 20260901233805 | 81 | 113 | 1.0 | 2.0 | 0.00 | 0.00 | 0.00 | 26 | 1010.6 |
| 20260901233305 | 80 | 198 | 1.0 | 3.0 | 0.00 | 0.00 | 0.00 | 27 | 1010.7 |
| 20260901232806 | 79 | 186 | 1.0 | 3.0 | 0.00 | 0.00 | 0.00 | 27 | 1011.0 |
| 20260901232306 | 79 | 178 | 2.0 | 6.0 | 0.00 | 0.00 | 0.00 | 27 | 1010.7 |
| 20260901231804 | 79 | 199 | 2.0 | 5.0 | 0.00 | 0.00 | 0.00 | 26 | 1010.8 |
| 20260901231304 | 78 | 191 | 1.0 | 3.0 | 0.00 | 0.00 | 0.00 | 26 | 1010.7 |
| 20260901230806 | 79 | 158 | 1.0 | 5.0 | 0.00 | 0.00 | 0.00 | 26 | 1011.0 |
| 20260901230305 | 80 | 176 | 2.0 | 3.0 | 0.00 | 0.00 | 0.00 | 26 | 1010.8 |
| 20260901225804 | 81 | 140 | 1.0 | 6.0 | 0.00 | 0.00 | 0.00 | 25 | 1010.7 |
| 20260901225306 | 81 | 177 | 2.0 | 5.0 | 0.00 | 0.00 | 0.00 | 25 | 1010.6 |
| 20260901224804 | 81 | 113 | 1.0 | 7.0 | 0.00 | 0.00 | 0.00 | 25 | 1010.7 |
| 20260901224305 | 81 | 176 | 2.0 | 5.0 | 0.00 | 0.00 | 0.00 | 26 | 1010.7 |
| 20260901223805 | 80 | 117 | 1.0 | 8.0 | 0.00 | 0.00 | 0.00 | 26 | 1010.8 |
| 20260901223305 | 80 | 168 | 3.0 | 7.0 | 0.00 | 0.00 | 0.00 | 26 | 1010.9 |
| 20260901222805 | 80 | 197 | 2.0 | 6.0 | 0.00 | 0.00 | 0.00 | 27 | 1011.0 |
| 20260901222306 | 80 | 190 | 1.0 | 3.0 | 0.00 | 0.00 | 0.00 | 28 | 1011.4 |
| 20260901221306 | 80 | 199 | 2.0 | 6.0 | 0.00 | 0.00 | 0.00 | 29 | 1011.0 |
| 20260901220805 | 80 | 205 | 3.0 | 7.0 | 0.00 | 0.00 | 0.00 | 28 | 1011.4 |
| 20260901220305 | 79 | 217 | 1.0 | 5.0 | 0.00 | 0.00 | 0.00 | 27 | 1011.4 |
| 20260901215805 | 79 | 184 | 3.0 | 7.0 | 0.00 | 0.00 | 0.00 | 27 | 1011.4 |
| 20260901215306 | 79 | 181 | 1.0 | 6.0 | 0.00 | 0.00 | 0.00 | 27 | 1011.3 |
| 20260901214806 | 80 | 173 | 3.0 | 7.0 | 0.00 | 0.00 | 0.00 | 27 | 1011.2 |
| 20260901214304 | 80 | 232 | 1.0 | 5.0 | 0.00 | 0.00 | 0.00 | 27 | 1011.3 |
| 20260901213805 | 79 | 325 | 1.0 | 5.0 | 0.00 | 0.00 | 0.00 | 29 | 1011.5 |
| 20260901212805 | 79 | 226 | 3.0 | 7.0 | 0.00 | 0.00 | 0.00 | 27 | 1011.6 |
| 20260901212306 | 78 | 179 | 2.0 | 6.0 | 0.00 | 0.00 | 0.00 | 28 | 1011.7 |
| 20260901211806 | 79 | 179 | 3.0 | 7.0 | 0.00 | 0.00 | 0.00 | 27 | 1011.4 |
| 20260901211305 | 79 | 181 | 3.0 | 7.0 | 0.00 | 0.00 | 0.00 | 27 | 1011.7 |
| 20260901210304 | 79 | 194 | 2.0 | 7.0 | 0.00 | 0.00 | 0.00 | 28 | 1011.6 |
| 20260901205806 | 79 | 187 | 3.0 | 7.0 | 0.00 | 0.00 | 0.00 | 28 | 1011.6 |
| 20260901205306 | 79 | 210 | 5.0 | 8.0 | 0.00 | 0.00 | 0.00 | 28 | 1011.7 |
| 20260901204805 | 79 | 181 | 4.0 | 8.0 | 0.00 | 0.00 | 0.00 | 29 | 1012.1 |
| 20260901204305 | 79 | 198 | 2.0 | 8.0 | 0.00 | 0.00 | 0.00 | 29 | 1011.9 |
| 20260901203806 | 79 | 202 | 1.0 | 7.0 | 0.00 | 0.00 | 0.00 | 30 | 1012.0 |
| 20260901203305 | 79 | 185 | 2.0 | 6.0 | 0.00 | 0.00 | 0.00 | 30 | 1012.0 |
| 20260901202805 | 78 | 282 | 1.0 | 7.0 | 0.00 | 0.00 | 0.00 | 32 | 1012.1 |
| 20260901202306 | 78 | 152 | 1.0 | 5.0 | 0.00 | 0.00 | 0.00 | 33 | 1012.1 |
| 20260901201805 | 78 | 195 | 3.0 | 6.0 | 0.00 | 0.00 | 0.00 | 32 | 1012.2 |
| 20260901201304 | 79 | 214 | 3.0 | 7.0 | 0.00 | 0.00 | 0.00 | 31 | 1011.9 |
| 20260901200804 | 79 | 123 | 1.0 | 5.0 | 0.00 | 0.00 | 0.00 | 30 | 1012.2 |
| 20260901195806 | 78 | 159 | 2.0 | 7.0 | 0.00 | 0.00 | 0.00 | 29 | 1012.3 |
| 20260901195306 | 78 | 225 | 3.0 | 7.0 | 0.00 | 0.00 | 0.00 | 30 | 1012.4 |
| 20260901194804 | 78 | 210 | 3.0 | 7.0 | 0.00 | 0.00 | 0.00 | 29 | 1012.4 |
| 20260901194305 | 77 | 1 | 1.0 | 5.0 | 0.00 | 0.00 | 0.00 | 32 | 1012.5 |
| 20260901193304 | 78 | 215 | 2.0 | 6.0 | 0.00 | 0.00 | 0.00 | 31 | 1012.6 |
| 20260901192805 | 78 | 211 | 2.0 | 6.0 | 0.00 | 0.00 | 0.00 | 31 | 1012.5 |
| 20260901192306 | 79 | 197 | 1.0 | 5.0 | 0.00 | 0.00 | 0.00 | 30 | 1012.5 |
| 20260901191805 | 78 | 160 | 1.0 | 5.0 | 0.00 | 0.00 | 0.00 | 32 | 1012.7 |
| 20260901191304 | 77 | 176 | 1.0 | 6.0 | 0.00 | 0.00 | 0.00 | 32 | 1012.6 |
| 20260901185805 | 75 | 204 | 0.0 | 5.0 | 0.00 | 0.00 | 0.00 | 35 | 1013.0 |
| 20260901185306 | 74 | 187 | 2.0 | 5.0 | 0.00 | 0.00 | 0.00 | 35 | 1013.1 |
| 20260901184805 | 74 | 202 | 2.0 | 6.0 | 0.00 | 0.00 | 0.00 | 35 | 1013.4 |
| 20260901184305 | 73 | 236 | 3.0 | 6.0 | 0.00 | 0.00 | 0.00 | 34 | 1013.3 |
| 20260901183805 | 74 | 212 | 3.0 | 7.0 | 0.00 | 0.00 | 0.00 | 34 | 1013.3 |
| 20260901183305 | 74 | 196 | 1.0 | 3.0 | 0.00 | 0.00 | 0.00 | 35 | 1013.3 |
| 20260901182806 | 75 | 50 | 0.0 | 5.0 | 0.00 | 0.00 | 0.00 | 35 | 1013.3 |
| 20260901182305 | 75 | 171 | 1.0 | 2.0 | 0.00 | 0.00 | 0.00 | 34 | 1013.3 |
| 20260901181305 | 74 | 226 | 2.0 | 6.0 | 0.00 | 0.00 | 0.00 | 36 | 1013.3 |
| 20260901180805 | 74 | 186 | 2.0 | 7.0 | 0.00 | 0.00 | 0.00 | 35 | 1013.4 |
| 20260901180305 | 74 | 148 | 0.0 | 5.0 | 0.00 | 0.00 | 0.00 | 36 | 1013.4 |
| 20260901175805 | 73 | 214 | 1.0 | 3.0 | 0.00 | 0.00 | 0.00 | 36 | 1013.3 |
| 20260901175305 | 72 | 278 | 1.0 | 6.0 | 0.00 | 0.00 | 0.00 | 37 | 1013.4 |
| 20260901174804 | 72 | 212 | 2.0 | 5.0 | 0.00 | 0.00 | 0.00 | 37 | 1013.6 |
| 20260901173805 | 70 | 237 | 1.0 | 3.0 | 0.00 | 0.00 | 0.00 | 40 | 1013.8 |
| 20260901173304 | 70 | 249 | 2.0 | 3.0 | 0.00 | 0.00 | 0.00 | 41 | 1013.8 |
| 20260901172806 | 70 | 271 | 1.0 | 2.0 | 0.00 | 0.00 | 0.00 | 41 | 1013.8 |
| 20260901172305 | 70 | 238 | 2.0 | 3.0 | 0.00 | 0.00 | 0.00 | 39 | 1013.6 |
| 20260901171805 | 70 | 201 | 2.0 | 5.0 | 0.00 | 0.00 | 0.00 | 39 | 1013.6 |
| 20260901171306 | 71 | 209 | 2.0 | 3.0 | 0.00 | 0.00 | 0.00 | 39 | 1013.5 |
| 20260901170804 | 71 | 107 | 0.0 | 2.0 | 0.00 | 0.00 | 0.00 | 40 | 1013.5 |
| 20260901170305 | 71 | 230 | 0.0 | 2.0 | 0.00 | 0.00 | 0.00 | 40 | 1013.5 |
| 20260901165806 | 71 | 237 | 1.0 | 3.0 | 0.00 | 0.00 | 0.00 | 38 | 1013.6 |
| 20260901165306 | 71 | 184 | 1.0 | 3.0 | 0.00 | 0.00 | 0.00 | 39 | 1013.6 |
| 20260901164805 | 70 | 231 | 0.0 | 2.0 | 0.00 | 0.00 | 0.00 | 42 | 1013.6 |
| 20260901164304 | 69 | 231 | 1.0 | 2.0 | 0.00 | 0.00 | 0.00 | 40 | 1013.8 |
| 20260901163805 | 69 | 212 | 1.0 | 2.0 | 0.00 | 0.00 | 0.00 | 41 | 1013.8 |
| 20260901163305 | 69 | 269 | 0.0 | 2.0 | 0.00 | 0.00 | 0.00 | 40 | 1013.6 |
| 20260901162306 | 70 | 269 | 1.0 | 2.0 | 0.00 | 0.00 | 0.00 | 40 | 1013.7 |
| 20260901161806 | 69 | 270 | 0.0 | 1.0 | 0.00 | 0.00 | 0.00 | 41 | 1013.8 |
| 20260901161305 | 69 | 269 | 1.0 | 2.0 | 0.00 | 0.00 | 0.00 | 42 | 1013.5 |
| 20260901160804 | 69 | 269 | 1.0 | 2.0 | 0.00 | 0.00 | 0.00 | 42 | 1013.7 |
| 20260901160305 | 68 | 254 | 0.0 | 2.0 | 0.00 | 0.00 | 0.00 | 44 | 1013.7 |
| 20260901155805 | 67 | 271 | 1.0 | 2.0 | 0.00 | 0.00 | 0.00 | 44 | 1014.0 |
| 20260901154805 | 66 | 258 | 1.0 | 2.0 | 0.00 | 0.00 | 0.00 | 46 | 1014.3 |
| 20260901154305 | 65 | 280 | 1.0 | 2.0 | 0.00 | 0.00 | 0.00 | 46 | 1014.2 |
| 20260901153806 | 65 | 1 | 1.0 | 2.0 | 0.00 | 0.00 | 0.00 | 49 | 1014.3 |
| 20260901153305 | 64 | 9 | 1.0 | 3.0 | 0.00 | 0.00 | 0.00 | 51 | 1014.4 |
| 20260901152805 | 62 | 266 | 1.0 | 3.0 | 0.00 | 0.00 | 0.00 | 52 | 1014.5 |
| 20260901152306 | 61 | 267 | 1.0 | 2.0 | 0.00 | 0.00 | 0.00 | 55 | 1014.9 |
| 20260901151305 | 59 | 259 | 1.0 | 2.0 | 0.00 | 0.00 | 0.00 | 58 | 1015.1 |
| 20260901150805 | 58 | 259 | 0.0 | 1.0 | 0.00 | 0.00 | 0.00 | 61 | 1015.4 |
| 20260901145806 | 56 | 291 | 1.0 | 2.0 | 0.00 | 0.00 | 0.00 | 63 | 1015.5 |
| 20260901145306 | 56 | 341 | 1.0 | 2.0 | 0.00 | 0.00 | 0.00 | 65 | 1015.7 |
| 20260901144805 | 55 | 287 | 1.0 | 2.0 | 0.00 | 0.00 | 0.00 | 66 | 1015.8 |
| 20260901142306 | 52 | 251 | 0.0 | 1.0 | 0.00 | 0.00 | 0.00 | 68 | 1015.7 |
| 20260901141806 | 52 | 251 | 0.0 | 1.0 | 0.00 | 0.00 | 0.00 | 70 | 1015.9 |
| 20260901140805 | 51 | 201 | 0.0 | 1.0 | 0.00 | 0.00 | 0.00 | 71 | 1015.7 |
| 20260901140304 | 51 | 199 | 0.0 | 1.0 | 0.00 | 0.00 | 0.00 | 71 | 1015.7 |
| 20260901135806 | 51 | 199 | 0.0 | 1.0 | 0.00 | 0.00 | 0.00 | 72 | 1015.6 |
| 20260901135305 | 51 | 198 | 0.0 | 1.0 | 0.00 | 0.00 | 0.00 | 72 | 1015.5 |
| 20260901134805 | 50 | 198 | 0.0 | 1.0 | 0.00 | 0.00 | 0.00 | 72 | 1015.4 |
| 20260901134305 | 50 | 198 | 0.0 | 1.0 | 0.00 | 0.00 | 0.00 | 72 | 1015.2 |
| 20260901133304 | 50 | 196 | 0.0 | 1.0 | 0.00 | 0.00 | 0.00 | 73 | 1015.1 |
| 20260901132805 | 49 | 196 | 0.0 | 1.0 | 0.00 | 0.00 | 0.00 | 73 | 1015.0 |
| 20260901132307 | 49 | 195 | 0.0 | 1.0 | 0.00 | 0.00 | 0.00 | 74 | 1015.3 |
| 20260901131806 | 48 | 195 | 0.0 | 0.0 | 0.00 | 0.00 | 0.00 | 75 | 1015.3 |
| 20260901131305 | 48 | 195 | 0.0 | 1.0 | 0.00 | 0.00 | 0.00 | 75 | 1014.9 |
| 20260901130305 | 49 | 195 | 0.0 | 1.0 | 0.00 | 0.00 | 0.00 | 74 | 1014.8 |
| 20260901125805 | 49 | 194 | 0.0 | 1.0 | 0.00 | 0.00 | 0.00 | 73 | 1014.9 |
| 20260901125308 | 48 | 195 | 1.0 | 2.0 | 0.00 | 0.00 | 0.00 | 74 | 1014.9 |
| 20260901124805 | 48 | 194 | 0.0 | 1.0 | 0.00 | 0.00 | 0.00 | 76 | 1015.1 |
| 20260901124304 | 47 | 192 | 0.0 | 1.0 | 0.00 | 0.00 | 0.00 | 78 | 1015.2 |
| 20260901123305 | 47 | 192 | 0.0 | 0.0 | 0.00 | 0.00 | 0.00 | 79 | 1015.0 |
| 20260901122805 | 47 | 192 | 0.0 | 0.0 | 0.00 | 0.00 | 0.00 | 79 | 1015.1 |
| 20260901122306 | 47 | 192 | 0.0 | 0.0 | 0.00 | 0.00 | 0.00 | 79 | 1015.1 |
| 20260901121806 | 47 | 192 | 0.0 | 0.0 | 0.00 | 0.00 | 0.00 | 78 | 1015.1 |
| 20260901121304 | 47 | 192 | 0.0 | 0.0 | 0.00 | 0.00 | 0.00 | 78 | 1015.2 |
| 20260901120805 | 48 | 192 | 0.0 | 0.0 | 0.00 | 0.00 | 0.00 | 78 | 1015.2 |
| 20260901120304 | 48 | 192 | 0.0 | 0.0 | 0.00 | 0.00 | 0.00 | 76 | 1015.1 |
| 20260901115806 | 48 | 192 | 0.0 | 0.0 | 0.00 | 0.00 | 0.00 | 76 | 1015.4 |
| 20260901115306 | 47 | 192 | 0.0 | 0.0 | 0.00 | 0.00 | 0.00 | 78 | 1015.2 |
| 20260901114805 | 48 | 192 | 0.0 | 0.0 | 0.00 | 0.00 | 0.00 | 77 | 1015.0 |
| 20260901114304 | 48 | 192 | 0.0 | 0.0 | 0.00 | 0.00 | 0.00 | 77 | 1015.3 |
| 20260901113805 | 47 | 192 | 0.0 | 0.0 | 0.00 | 0.00 | 0.00 | 77 | 1015.1 |
| 20260901113304 | 47 | 192 | 0.0 | 0.0 | 0.00 | 0.00 | 0.00 | 78 | 1014.9 |
| 20260901112805 | 48 | 192 | 0.0 | 0.0 | 0.00 | 0.00 | 0.00 | 76 | 1014.9 |
| 20260901112306 | 48 | 192 | 0.0 | 0.0 | 0.00 | 0.00 | 0.00 | 76 | 1015.0 |
| 20260901111806 | 48 | 192 | 0.0 | 0.0 | 0.00 | 0.00 | 0.00 | 75 | 1014.9 |
| 20260901111305 | 49 | 192 | 0.0 | 0.0 | 0.00 | 0.00 | 0.00 | 75 | 1014.8 |
| 20260901110805 | 48 | 192 | 0.0 | 1.0 | 0.00 | 0.00 | 0.00 | 75 | 1015.0 |
| 20260901110304 | 49 | 192 | 0.0 | 0.0 | 0.00 | 0.00 | 0.00 | 74 | 1014.8 |
| 20260901105806 | 49 | 192 | 0.0 | 0.0 | 0.00 | 0.00 | 0.00 | 75 | 1014.7 |
| 20260901104804 | 49 | 192 | 0.0 | 0.0 | 0.00 | 0.00 | 0.00 | 74 | 1014.6 |
| 20260901104305 | 49 | 192 | 0.0 | 1.0 | 0.00 | 0.00 | 0.00 | 73 | 1014.7 |
| 20260901103806 | 49 | 192 | 0.0 | 1.0 | 0.00 | 0.00 | 0.00 | 73 | 1014.7 |
| 20260901103305 | 49 | 192 | 0.0 | 2.0 | 0.00 | 0.00 | 0.00 | 74 | 1014.7 |
| 20260901102804 | 48 | 160 | 0.0 | 0.0 | 0.00 | 0.00 | 0.00 | 75 | 1015.0 |
| 20260901102306 | 48 | 160 | 0.0 | 0.0 | 0.00 | 0.00 | 0.00 | 76 | 1014.7 |
| 20260901101806 | 48 | 160 | 0.0 | 0.0 | 0.00 | 0.00 | 0.00 | 76 | 1014.7 |
| 20260901100805 | 48 | 160 | 0.0 | 0.0 | 0.00 | 0.00 | 0.00 | 75 | 1014.6 |
| 20260901095805 | 49 | 160 | 0.0 | 0.0 | 0.00 | 0.00 | 0.00 | 75 | 1014.9 |
| 20260901095306 | 49 | 160 | 0.0 | 0.0 | 0.00 | 0.00 | 0.00 | 74 | 1014.7 |
| 20260901094804 | 49 | 160 | 0.0 | 0.0 | 0.00 | 0.00 | 0.00 | 73 | 1014.8 |
| 20260901094304 | 50 | 160 | 0.0 | 0.0 | 0.00 | 0.00 | 0.00 | 72 | 1014.7 |
| 20260901093806 | 50 | 160 | 0.0 | 0.0 | 0.00 | 0.00 | 0.00 | 72 | 1014.9 |
| 20260901093305 | 50 | 160 | 0.0 | 0.0 | 0.00 | 0.00 | 0.00 | 74 | 1014.9 |
| 20260901092804 | 51 | 160 | 0.0 | 0.0 | 0.00 | 0.00 | 0.00 | 72 | 1014.9 |
| 20260901092305 | 51 | 160 | 0.0 | 0.0 | 0.00 | 0.00 | 0.00 | 70 | 1014.8 |
| 20260901091805 | 50 | 160 | 0.0 | 0.0 | 0.00 | 0.00 | 0.00 | 70 | 1014.7 |
| 20260901091305 | 50 | 160 | 0.0 | 0.0 | 0.00 | 0.00 | 0.00 | 71 | 1015.0 |
| 20260901090305 | 51 | 160 | 0.0 | 0.0 | 0.00 | 0.00 | 0.00 | 70 | 1015.0 |
| 20260901085806 | 51 | 160 | 0.0 | 0.0 | 0.00 | 0.00 | 0.00 | 70 | 1015.0 |
| 20260901084804 | 50 | 160 | 0.0 | 0.0 | 0.00 | 0.00 | 0.00 | 71 | 1015.0 |
| 20260901084306 | 51 | 160 | 0.0 | 0.0 | 0.00 | 0.00 | 0.00 | 71 | 1015.2 |
| 20260901083804 | 51 | 160 | 0.0 | 0.0 | 0.00 | 0.00 | 0.00 | 70 | 1015.4 |
| 20260901083304 | 52 | 160 | 0.0 | 0.0 | 0.00 | 0.00 | 0.00 | 68 | 1015.1 |
| 20260901082306 | 51 | 160 | 0.0 | 0.0 | 0.00 | 0.00 | 0.00 | 69 | 1015.3 |
| 20260901081804 | 52 | 160 | 0.0 | 0.0 | 0.00 | 0.00 | 0.00 | 69 | 1015.0 |
| 20260901081304 | 51 | 160 | 0.0 | 0.0 | 0.00 | 0.00 | 0.00 | 71 | 1015.7 |
| 20260901080805 | 51 | 160 | 0.0 | 0.0 | 0.00 | 0.00 | 0.00 | 72 | 1015.2 |
| 20260901080306 | 51 | 160 | 0.0 | 0.0 | 0.00 | 0.00 | 0.00 | 72 | 1015.5 |
| 20260901075805 | 51 | 160 | 0.0 | 0.0 | 0.00 | 0.00 | 0.00 | 70 | 1015.3 |
| 20260901075307 | 51 | 160 | 0.0 | 0.0 | 0.00 | 0.00 | 0.00 | 69 | 1015.6 |
| 20260901074805 | 51 | 160 | 0.0 | 0.0 | 0.00 | 0.00 | 0.00 | 69 | 1015.5 |
| 20260901074304 | 51 | 160 | 0.0 | 0.0 | 0.00 | 0.00 | 0.00 | 69 | 1015.8 |
| 20260901073305 | 52 | 160 | 0.0 | 0.0 | 0.00 | 0.00 | 0.00 | 69 | 1015.8 |
| 20260901072806 | 52 | 160 | 0.0 | 0.0 | 0.00 | 0.00 | 0.00 | 68 | 1015.6 |
| 20260901072309 | 52 | 160 | 0.0 | 0.0 | 0.00 | 0.00 | 0.00 | 68 | 1015.8 |
| 20260901071805 | 52 | 160 | 0.0 | 0.0 | 0.00 | 0.00 | 0.00 | 68 | 1015.8 |
| 20260901071305 | 53 | 160 | 0.0 | 0.0 | 0.00 | 0.00 | 0.00 | 68 | 1015.7 |
| 20260901070305 | 53 | 160 | 0.0 | 0.0 | 0.00 | 0.00 | 0.00 | 65 | 1015.7 |
| 20260901065804 | 53 | 160 | 0.0 | 0.0 | 0.00 | 0.00 | 0.00 | 66 | 1015.9 |
| 20260901065305 | 53 | 160 | 0.0 | 0.0 | 0.00 | 0.00 | 0.00 | 67 | 1015.8 |